sat.trackr.live / text

‹ back to catalog

ZIYUAN 1-02C (ZY 1-02C)

NORAD 38038 · 2011-079A

PAYLOAD ACTIVE UNKNOWN

§ Identity

Operator
Country
PRC
Launch date
2011-12-22
Launch site
TAISC
Launch vehicle
Mass (kg)
RCS (m²)
4.56

Purposes: earth_obs

External: N2YO · Heavens-Above · Gunter

§ Orbital elements

Epoch: 2026-09-10T05:33:55.716768Z

Period
100.12 min
Inclination
98.4006°
Eccentricity
0.0007524
Mean motion
14.38270636 rev/d
Perigee alt
758.8 km
Apogee alt
769.6 km
Semi-major
7,142.4 km
B*
9.4307e-5
RAAN
318.7329°
Arg perigee
58.7019°
Mean anomaly
20.5089°
Rev number
77,143

§ Raw data

ZIYUAN 1-02C (ZY 1-02C)1 38038U 11079A   26253.23189487  .00000244  00000+0  94307-4 0  99962 38038  98.4006 318.7329 0007524  58.7019  20.5089 14.38270636771438

JSON: /api/v1/satellites/38038 · /tle

For live sub-satellite position, see the globe view (requires WebGL).

§ Visibility from observer

Set your observer location to see the next 7 days of passes ≥ 10°. The values pass through the URL so the page stays shareable.

No JS? Fill the form by hand. The geolocation button needs JavaScript.

§ Radio — SatNOGS DB

ModeDescriptionDownlinkUplink
BPSK S-band telemetry 2.226 GHz

1 transmitter · refreshed weekly from db.satnogs.org